Pioche, Nevada Weather observations

Data are for observation ending at time listed.
 Day   Time    Ave.   Ave.  Ave.  Vector   Max.   Stn.    Total    Solar   Ave.  
  of    of     Air    Rel.  Wind   Wind    Wind   Baro.  Precip.   Rad.    Soil  
Year   Day     Temp.  Hum.  Speed  Dir.    Gust   Pres.                    Temp. 
2026   (PST)    F      %     mph   deg.    mph     mb.     in.     W/m2     F   
------------------------------------------------------------------------------
 129    9:40   74.5    15    1.1   352      4.5   822.1    0.00     979    63.1
 129    9:50   75.4    14    0.8   331      4.2   822.2    0.00     996    63.0
 129   10:00   76.5    14    1.0   337      5.0   822.1    0.00    1019    63.1
 129   10:10   73.9    15    4.2   333     10.7   822.0    0.00    1037    63.1
 129   10:20   73.9    15    3.7    95     13.1   821.9    0.00    1055    63.1
 129   10:30   75.2    14    3.3   305      8.1   821.9    0.00    1003    63.0
 129   10:40   74.0    15    2.4    76      9.2   821.8    0.00     977    63.1
 129   10:50   75.8    14    3.5    88     13.3   821.7    0.00    1093    63.1
 129   11:00   75.5    14    3.8   121     10.0   821.6    0.00    1082    63.1
 129   11:10   77.2    14    2.2   341      7.7   821.5    0.00    1081    63.0
 129   11:20   77.2    14    4.7   290      9.0   821.4    0.00    1106    63.1
 129   11:30   77.3    14    3.5   286      9.3   821.3    0.00    1114    63.2
 129   11:40   77.9    13    3.0   168      9.2   821.3    0.00    1122    63.3
 129   11:50   77.3    13    3.7    74      9.1   821.2    0.00    1126    63.3
 129   12:00   76.5    14    4.6    73     17.2   821.0    0.00    1114    63.3
 129   12:10   78.2    13    3.1   275     10.3   820.9    0.00    1138    63.4
 129   12:20   78.9    12    3.1    96     10.9   820.8    0.00    1161    63.5
 129   12:30   79.4    13    3.0   210      7.2   820.7    0.00    1071    63.6
 129   12:40   79.2    12    3.4   311      8.2   820.7    0.00     654    63.6
 129   12:50   78.4    12    5.2   296     10.4   820.6    0.00    1032    63.7
 129   13:00   79.3    12    7.2   287     13.3   820.6    0.00    1062    63.8
 129   13:10   79.1    12   10.4   289     20.0   820.5    0.00    1050    63.8
 129   13:20   78.6    12    8.6   269     16.4   820.5    0.00    1025    63.9
 129   13:30   79.4    12    3.7   229     11.2   820.4    0.00    1033    64.0
 129   13:40   80.1    11    6.3   291     14.2   820.4    0.00    1069    64.1
 129   13:50   79.9    11    6.8   293     16.1   820.2    0.00    1008    64.1
 129   14:00   79.9    11    6.1   298      9.8   820.2    0.00     917    64.2
 129   14:10   79.3    11    2.0   327      9.6   820.1    0.00     775    64.3
 129   14:20   80.5    11    2.8   319      8.1   819.8    0.00     981    64.3
 129   14:30   80.4    11    3.9   308     15.8   819.7    0.00     598    64.4
 129   14:40   79.7    11    8.7   271     22.1   819.7    0.00     165    64.5
 129   14:50   79.0    10    6.7   264     16.3   819.7    0.00     131    64.6
 129   15:00   79.1    11    4.2   263     12.2   819.5    0.00     147    64.7
 129   15:10   79.2    11    4.1   310      9.9   819.5    0.00     170    64.7
 129   15:20   78.8    12    3.9   302     10.9   819.4    0.00     160    64.8
 129   15:30   79.5    11    2.3   317      6.9   819.4    0.00     156    64.9
 129   15:40   78.8    12    8.3   291     18.1   819.4    0.00     113    64.9
 129   15:50   78.3    11    3.6   304      8.1   819.4    0.00     129    65.0
 129   16:00   78.7    11    5.6   290     11.8   819.4    0.00     109    65.1
 129   16:10   78.7    10    4.6   299      9.6   819.3    0.00     106    65.1
 129   16:20   78.9    10    2.0    21     11.8   819.3    0.00     125    65.2
 129   16:30   78.9    11    2.4   315      7.4   819.4    0.00     120    65.3
 129   16:40   78.9    11    6.2   297      9.8   819.4    0.00     107    65.3
 129   16:50   78.4    12    7.4   306     14.6   819.4    0.00     107    65.3
 129   17:00   77.9    12    4.3   317      9.9   819.4    0.00      91    65.4
 129   17:10   77.8    12    5.5   312     13.8   819.4    0.00      80    65.4
 129   17:20   77.6    11    5.8   302     10.5   819.5    0.00      71    65.4
 129   17:30   78.0    10    4.6   308      9.6   819.5    0.00     105    65.5
 129   17:40   78.5     9    2.6   303      9.7   819.5    0.00     160    65.5
 129   17:50   77.3     9    4.9   306      9.6   819.6    0.00     140    65.5
 129   18:00   76.7     9    4.7   303      8.2   819.7    0.00     102    65.6
 129   18:10   75.8    10    4.3   300      7.2   819.7    0.00      63    65.7
 129   18:20   74.1    11    3.9   285      6.8   819.7    0.00      27    65.8
 129   18:30   72.3    13    2.0   256      3.9   819.7    0.00      10    65.9
 129   18:40   71.2    13    2.8   260      4.9   819.8    0.00       6    65.9
 129   18:50   70.9    13    3.4   260      5.7   819.8    0.00       1    65.9
 129   19:00   71.1    13    4.8   267      7.3   819.9    0.00       0    66.0
 129   19:10   70.8    13    5.4   270      8.0   820.0    0.00       0    66.1
 129   19:20   70.4    14    5.5   270      8.2   820.1    0.00       0    66.1
 129   19:30   69.9    14    6.4   271      9.4   820.2    0.00       0    66.1
 129   19:40   69.5    14    4.9   275     10.4   820.4    0.00       0    66.1
 129   19:50   68.9    14    1.1   276      3.9   820.6    0.00       0    66.2
 129   20:00   67.8    15    1.7   275      3.1   820.8    0.00       0    66.2
 129   20:10   66.1    16    2.1   265      4.5   820.9    0.00       0    66.2
 129   20:20   65.0    16    2.1   158      5.5   821.1    0.00       0    66.2
 129   20:30   64.2    16    1.5   183      4.0   821.2    0.00       0    66.2
 129   20:40   63.3    16    3.0   192      4.7   821.2    0.00       0    66.2
 129   20:50   62.4    17    1.5   234      3.0   821.2    0.00       0    66.2
 129   21:00   62.5    16    1.2   229      3.2   821.3    0.00       0    66.2
 129   21:10   62.8    16    1.9   253      4.0   821.4    0.00       0    66.2
 129   21:20   63.5    15    2.6   260      5.1   821.4    0.00       0    66.2
 129   21:30   63.0    16    2.0   245      3.9   821.5    0.00       0    66.1
 129   21:40   63.6    16    2.5   261      5.0   821.6    0.00       0    66.1
 129   21:50   62.7    18    2.0   257      3.9   821.7    0.00       0    66.1
 129   22:00   60.2    21    1.2   244      2.6   821.7    0.00       0    66.1
 129   22:10   60.2    20    0.7   198      1.7   821.7    0.00       0    66.1
 129   22:20   60.5    20    1.2   191      2.0   821.8    0.00       0    66.1
 129   22:30   59.5    22    1.2   149      2.6   821.8    0.00       0    66.0
 129   22:40   59.6    21    1.3   154      2.3   821.9    0.00       0    66.0
 129   22:50   59.0    22    1.0   157      2.0   821.9    0.00       0    66.0
 129   23:00   58.9    22    2.0   147      3.3   822.0    0.00       0    66.0
 129   23:10   57.9    23    1.1   175      2.4   822.1    0.00       0    65.9
 129   23:20   57.6    24    1.7   158      3.9   822.1    0.00       0    65.9
 129   23:30   57.1    23    3.4   156      5.4   822.2    0.00       0    65.9
 129   23:40   56.2    28    0.9   173      2.7   822.2    0.00       0    65.9
 129   23:50   55.7    29    0.5   185      1.7   822.3    0.00       0    65.9
 130    0:00   55.7    27    1.5   271      2.8   822.3    0.00       0    65.9
 130    0:10   55.4    28    3.0   268      5.6   822.3    0.00       0    65.8
 130    0:20   56.0    25    3.9   266      6.0   822.2    0.00       0    65.8
 130    0:30   56.8    22    4.1   264      8.6   822.1    0.00       0    65.7
 130    0:40   57.5    20    5.3   270      9.0   822.2    0.00       0    65.7
 130    0:50   58.1    19    5.6   269      9.6   822.1    0.00       0    65.6
 130    1:00   58.5    18    5.8   270      8.9   822.1    0.00       0    65.6
 130    1:10   58.6    18    3.8   269      6.6   822.2    0.00       0    65.6
 130    1:20   58.4    19    4.6   270      7.1   822.2    0.00       0    65.5
 130    1:30   58.2    19    3.5   265      5.9   822.2    0.00       0    65.5
 130    1:40   58.0    19    2.2   260      4.1   822.3    0.00       0    65.5
 130    1:50   57.8    18    2.4   263      4.0   822.4    0.00       0    65.4
 130    2:00   56.7    19    0.9   262      3.2   822.4    0.00       0    65.4
 130    2:10   56.0    21    2.8   278      4.9   822.5    0.00       0    65.4
 130    2:20   55.6    20    3.2   265      5.0   822.5    0.00       0    65.3
 130    2:30   55.8    18    4.3   269      6.4   822.5    0.00       0    65.3
 130    2:40   56.1    20    3.7   268      5.8   822.5    0.00       0    65.3
 130    2:50   55.6    21    4.3   269      6.4   822.5    0.00       0    65.2
 130    3:00   56.1    19    4.1   268      6.5   822.5    0.00       0    65.2
 130    3:10   56.3    18    4.0   270      5.8   822.6    0.00       0    65.1
 130    3:20   56.4    18    3.5   266      6.1   822.6    0.00       0    65.1
 130    3:30   56.0    20    2.5   274      3.7   822.7    0.00       0    65.0
 130    3:40   54.6    23    2.9   271      4.9   822.8    0.00       0    65.0
 130    3:50   53.5    29    2.4   268      4.5   822.9    0.00       0    65.0
 130    4:00   53.4    23    2.2   275      4.1   823.0    0.00       0    64.9
 130    4:10   53.6    21    4.8   270      7.1   823.0    0.00       0    64.9
 130    4:20   54.7    19    6.1   270      9.3   823.0    0.00       0    64.8
 130    4:30   54.4    20    6.1   272      9.6   823.1    0.00       0    64.7
 130    4:40   54.8    19    6.3   272     10.5   823.1    0.00       5    64.7
 130    4:50   55.2    19    6.6   271     11.0   823.1    0.00      11    64.6
 130    5:00   55.5    18    6.8   270     11.5   823.2    0.00      16    64.6
 130    5:10   55.7    18    7.6   274     12.7   823.4    0.00      23    64.5
 130    5:20   55.8    18    8.0   277     12.2   823.4    0.00      29    64.5
 130    5:30   56.0    18    8.5   274     11.9   823.5    0.00      34    64.5
 130    5:40   56.4    18    6.8   278     11.5   823.6    0.00      38    64.4
 130    5:50   56.6    19    7.0   281     11.6   823.8    0.00      43    64.4
 130    6:00   56.9    19    6.7   279      9.9   823.9    0.00      98    64.3
 130    6:10   57.3    19    6.2   281      9.2   823.9    0.00     250    64.3
 130    6:20   58.0    19    6.0   282      9.6   824.0    0.00     174    64.3
 130    6:30   58.7    19    5.9   288      8.8   824.1    0.00     197    64.2
 130    6:40   59.6    19    5.1   288      8.6   824.1    0.00     200    64.2
 130    6:50   60.6    18    5.4   285      8.0   824.2    0.00     335    64.1
 130    7:00   61.2    18    5.5   287      8.4   824.3    0.00     493    64.1
 130    7:10   62.5    18    5.3   287      8.4   824.3    0.00     547    64.0
 130    7:20   63.9    17    4.5   288      7.4   824.4    0.00     584    64.1
 130    7:30   65.6    15    3.1   298      5.3   824.5    0.00     621    64.0
 130    7:40   67.2    13    2.0   298      4.7   824.5    0.00     658    64.0
 130    7:50   68.8    12    1.2   319      3.6   824.5    0.00     694    64.0
 130    8:00   69.8    11    1.1    36      5.0   824.6    0.00     727    64.0
 130    8:10   70.0    10    1.3   295      3.7   824.6    0.00     761    64.0
 130    8:20   69.7    10    2.1   308      4.5   824.7    0.00     793    64.0
 130    8:30   70.3    10    1.7   332      4.2   824.7    0.00     826    64.0
 130    8:40   71.1    10    2.2   126      7.2   824.7    0.00     856    64.0
 130    8:50   70.5    10    3.1   112      7.5   824.8    0.00     886    64.0
 130    9:00   70.6    10    2.3   131      6.5   824.8    0.00     914    63.9
 130    9:10   71.7    10    3.8   107     11.0   824.7    0.00     940    63.9
 130    9:20   71.1    11    4.2    97     11.5   824.7    0.00     965    63.9
 130    9:30   72.2    10    2.3    94      7.7   824.7    0.00     990    63.9

Return to Pioche, Nevada graphs page.


Western Regional Climate Center,wrcc@dri.edu